Shawbury, United Kingdom

3:39 PM GMT on February 20, 2017 (GMT +0000)
Shawbury Air Base

Weather History for EGOS - August, 2013

Change the Weather History Date:

Thursday, August 8, 2013

  Actual Average Record
Temperature  
Mean Temperature 58 °F -  
Max Temperature 71 °F 65 °F 82 °F (1997)
Min Temperature 46 °F 50 °F 42 °F (2005)
Degree Days  
Heating Degree Days 6    
Growing Degree Days 8 (Base 50)    
Moisture  
Dew Point 49 °F    
Average Humidity 67    
Maximum Humidity 100    
Minimum Humidity 37    
Precipitation  
Precipitation 0.01 in - - ()
Sea Level Pressure  
Sea Level Pressure 30.06 in    
Wind  
Wind Speed 5 mph ()    
Max Wind Speed 16 mph    
Max Gust Speed -    
Visibility 6.8 miles    
Events Rain    
Averages and records for this station are not official NWS values.
T = Trace of Precipitation, MM = Missing Value Source: Averaged Metar Reports

Daily Weather History Graph

Daily Weather History Graph

Search for Another Location

Airport or City:

Trip Planner

Search our weather history database for the weather conditions in past years. The results will help you decide how hot, cold, wet, or windy it might be!

Date:

Astronomy

Aug. 08, 2013 Rise Set
Actual Time 5:40 AM BST 8:50 PM BST
Civil Twilight 5:00 AM BST 9:31 PM BST
Nautical Twilight 4:05 AM BST 10:24 PM BST
Astronomical Twilight 2:52 AM BST 11:36 PM BST
Moon 7:35 AM BST (8/8) 8:55 PM BST (8/8)
Length of Visible Light 16h 31m
Length of Day
15h 09m
New Moon, 2% of the Moon is Illuminated
Aug 8
New Moon
Aug 14
First Quarter
Aug 21
Full
Aug 28
Last Quarter
Sep 5
New

Hourly Weather History & Observations

Time (BST) Temp. Windchill Dew Point Humidity Pressure Visibility Wind Dir Wind Speed Gust Speed Precip Events Conditions
12:50 AM 56 °F - 51 °F 76% 30.06 in 8 mi NNW 5.8 mph - -  
12:50 AM 55.4 °F - 50.0 °F 82% 30.04 in 6.2 mi NNW 5.8 mph - N/A   Unknown
1:50 AM 50.0 °F - 48.2 °F 94% 30.04 in 6.2 mi West 2.3 mph - N/A   Unknown
2:50 AM 48.2 °F - 46.4 °F 93% 30.04 in 4.3 mi SSW 1.2 mph - N/A   Mist
3:50 AM 49 °F - 49 °F 98% 30.07 in 4 mi ENE 1.2 mph - -   Mist
3:50 AM 50.0 °F - 48.2 °F 94% 30.06 in 4.3 mi ENE 1.2 mph - N/A   Mist
4:50 AM 48.2 °F - 46.4 °F 93% 30.06 in 5.0 mi SW 1.2 mph - N/A   Mist
5:50 AM 46.4 °F 43.5 °F 46.4 °F 100% 30.06 in 3.1 mi WSW 5.8 mph - N/A   Mist
6:50 AM 49 °F - 48 °F 95% 30.10 in 6 mi East 1.2 mph - -   Scattered Clouds
6:50 AM 50.0 °F - 48.2 °F 94% 30.06 in - East 1.2 mph - N/A   Clear
7:50 AM 53.6 °F - 50.0 °F 88% 30.06 in - ESE 3.5 mph - N/A   Clear
8:50 AM 55.4 °F - 51.8 °F 88% 30.09 in - South 3.5 mph - N/A   Clear
9:50 AM 63 °F - 52 °F 58% 30.10 in 9 mi SSE 4.6 mph - -   Mostly Cloudy
9:50 AM 62.6 °F - 51.8 °F 68% 30.09 in - SSE 4.6 mph - N/A   Clear
10:50 AM 68.0 °F - 53.6 °F 60% 30.09 in 6.2 mi SSW 6.9 mph - N/A   Mostly Cloudy
11:50 AM 69.8 °F - 55.4 °F 60% 30.06 in 6.2 mi SW 6.9 mph - N/A   Mostly Cloudy
12:50 PM 70 °F - 53 °F 44% 30.07 in 11 mi SSW 11.5 mph - -   Mostly Cloudy
12:50 PM 69.8 °F - 53.6 °F 56% 30.06 in 6.2 mi SSW 11.5 mph - N/A   Mostly Cloudy
1:50 PM 71.6 °F - 50.0 °F 46% 30.06 in 6.2 mi SW 12.7 mph - N/A   Mostly Cloudy
2:50 PM 71.6 °F - 48.2 °F 43% 30.06 in 6.2 mi SW 13.8 mph - N/A   Mostly Cloudy
3:50 PM 71 °F - 50 °F 37% 30.05 in 19 mi South 10.4 mph - -   Mostly Cloudy
3:50 PM 71.6 °F - 50.0 °F 46% 30.04 in 6.2 mi South 10.4 mph - N/A   Mostly Cloudy
4:50 PM 71.6 °F - 50.0 °F 46% 30.04 in 6.2 mi South 10.4 mph - N/A   Scattered Clouds
5:50 PM 69.8 °F - 48.2 °F 46% 30.04 in 6.2 mi SW 15.0 mph - N/A   Scattered Clouds
6:50 PM 68.0 °F - 44.6 °F 43% 30.04 in 6.2 mi SSW 16.1 mph - N/A   Mostly Cloudy
7:50 PM 66.2 °F - 48.2 °F 52% 30.04 in 6.2 mi SSW 10.4 mph - N/A   Mostly Cloudy
8:50 PM 64.4 °F - 46.4 °F 52% 30.04 in 6.2 mi South 9.2 mph - N/A   Mostly Cloudy
9:50 PM 64 °F - 47 °F 42% 30.03 in 12 mi SSW 8.1 mph - -   Overcast
9:50 PM 64.4 °F - 46.4 °F 52% 30.04 in 6.2 mi SSW 8.1 mph - N/A   Overcast
10:50 PM 62.6 °F - 48.2 °F 59% 30.01 in 6.2 mi SSW 11.5 mph - N/A   Overcast
11:50 PM 59.0 °F - 53.6 °F 82% 30.01 in 6.2 mi South 5.8 mph - N/A Rain Light Rain Showers